{"data":{"norad_id":42740,"epoch":"2026-05-24T23:22:38.556768Z","epoch_age_seconds":70522,"freshness":"FRESH","line1":"1 42740U 17029A   26144.97405737 -.00000268  00000+0  00000+0 0  9990","line2":"2 42740   0.0138 288.0340 0000121 127.7761 107.5366  1.00270921 32972","mean_motion":1.00270921,"eccentricity":1.21e-5,"inclination_deg":0.0138,"raan_deg":288.034,"arg_perigee_deg":127.7761,"mean_anomaly_deg":107.5366,"bstar":0,"rev_number":3297,"period_min":1436.1092783819,"perigee_km":35786.326977306,"apogee_km":35787.347369681,"semimajor_km":42164.974173494,"source":"CELESTRAK","updated_at":"2026-05-25T13:38:14.044937Z"}}